Flag for Canada Weather past 2 weeks in Riverview, New Brunswick, Canada

Now
70 °F

Passing clouds.


Feels Like: 70 °F
Forecast: 51 / 83 °F
Wind: 12 mph from West

Location: Moncton

Current Time: Sep 2, 2015 at 12:04:00 PM

Latest Report: Sep 2, 2015 at 11:00 AM


Visibility: 15 mi

Pressure: 29.87 "Hg

Humidity: 64%

Dew point: 57 °F

Location of RiverviewLocation

Historic Weather in Riverview — Graph

°F

Riverview temperature yesterday

Maximum temperature yesterday: 66 °F (at 3:00 PM)
Minimum temperature yesterday: 54 °F (at 11:00 PM)
Average temperature yesterday: 60 °F

Past Weeks' High & Low Weather Summary

 TemperatureHumidityPressure
High91 °F (Aug 18, 4:00 PM)100% (Aug 19, 4:00 AM)30.20 "Hg (Aug 19, 4:00 AM)
Low52 °F (Sep 2, 12:00 AM)41% (Aug 18, 3:00 PM)29.59 "Hg (Aug 31, 8:00 PM)
Average69 °F82%29.99 "Hg
* Reported Aug 18 11:00 AM — Sep 2 11:00 AM, Riverview, Weather by CustomWeather, © 2015

Note: Actual official high and low records may vary slightly from our data, if they occured in-between our weather recording intervals... More about our weather records

Advertising

Riverview weather history for previous 24 hours

 ConditionsComfort  
Time TempWeatherWind HumidityBarometerVisibility
11:00 AM
Wed, Sep 2
70 °FPassing clouds.12 mph64%29.87 "Hg15 mi
10:00 AM63 °FScattered clouds.12 mph73%29.88 "Hg15 mi
9:00 AM57 °FPartly sunny.7 mph88%29.89 "Hg15 mi
8:00 AM55 °FMostly cloudy.7 mph88%29.90 "Hg15 mi
7:00 AM52 °FMostly cloudy.7 mph94%29.90 "Hg15 mi
6:00 AM52 °FPassing clouds.7 mph94%29.91 "Hg15 mi
5:00 AM52 °FPassing clouds.7 mph94%29.93 "Hg15 mi
4:00 AM52 °FPassing clouds.8 mph94%29.95 "Hg15 mi
3:00 AM52 °FPassing clouds.5 mph94%29.96 "Hg15 mi
2:00 AM52 °FPassing clouds.5 mph94%29.97 "Hg15 mi
1:00 AM52 °FPassing clouds.6 mph94%29.98 "Hg15 mi
12:00 AM52 °FPassing clouds.6 mph94%29.99 "Hg15 mi
11:00 PM
Tue, Sep 1
54 °FPassing clouds.8 mph82%30.00 "Hg15 mi
10:00 PM55 °FPassing clouds.5 mph77%30.01 "Hg15 mi
9:00 PM55 °FPassing clouds.6 mph82%30.00 "Hg15 mi
8:00 PM55 °FPartly sunny.5 mph82%30.00 "Hg15 mi
7:00 PM61 °FPartly sunny.5 mph72%30.00 "Hg15 mi
6:00 PM63 °FPartly sunny.7 mph68%29.99 "Hg15 mi
5:00 PM64 °FPartly sunny.8 mph64%29.98 "Hg15 mi
4:00 PM64 °FPartly sunny.10 mph64%29.98 "Hg15 mi
3:00 PM66 °FPartly sunny.10 mph60%29.98 "Hg15 mi
2:00 PM64 °FPartly sunny.7 mph60%29.97 "Hg15 mi
1:00 PM64 °FPartly sunny.13 mph64%29.97 "Hg15 mi
12:00 PM63 °FPartly sunny.13 mph64%29.97 "Hg15 mi
Weather by CustomWeather, © 2015

See weather overviewHow to use our weather pages